Location: Asheville, NC
(35.6000°N, 82.5500°W)
Time: 17:23:45

XW-2C - Pass Details

Date: 11 March 2018
Orbit: 510 x 531 km, 97.5° (Epoch: 18 March)

Event Time Altitude Azimuth Distance (km) Brightness Sun altitude
Rises 07:09:41 0° 19° (NNE) 2,657 ? -8.3°
Reaches altitude 10° 07:11:52 10° 26° (NNE) 1,768 ? -7.9°
Maximum altitude 07:15:30 42° 99° (E) 753 ? -7.1°
Drops below altitude 10° 07:19:08 10° 171° (S) 1,764 ? -6.4°
Sets 07:21:19 0° 178° (S) 2,650 ? -6.0°
